timestamp,wind_dir_avg,wind_spd_avg,wind_spd_max_dir,wind_spd_gust,battery_voltage,lat,long
2022-01-11 00:04:01+00:00,286.0,8.52,284.0,11.0,12.25,47.59359,-54.27349
2022-01-11 00:14:01+00:00,293.0,8.9,299.0,10.79,12.17,47.59359,-54.27349
2022-01-11 00:24:01+00:00,289.0,8.43,282.0,10.14,12.17,47.59359,-54.27349
2022-01-11 00:34:01+00:00,292.0,10.65,297.0,11.85,12.17,47.59359,-54.27349
2022-01-11 00:44:01+00:00,297.0,8.67,297.0,11.29,12.17,47.59359,-54.27349
2022-01-11 00:54:01+00:00,296.0,8.15,294.0,9.34,12.17,47.59359,-54.27349
2022-01-11 01:04:01+00:00,312.0,6.83,314.0,9.06,12.17,47.59359,-54.27349
2022-01-11 01:14:01+00:00,312.0,6.65,310.0,9.25,12.17,47.59359,-54.27349
2022-01-11 01:24:01+00:00,296.0,7.94,287.0,11.45,12.17,47.59359,-54.27349
2022-01-11 01:34:01+00:00,307.0,7.29,307.0,8.77,12.17,47.59359,-54.27349
2022-01-11 01:44:01+00:00,308.0,7.68,303.0,9.11,12.17,47.59359,-54.27349
2022-01-11 01:54:01+00:00,311.0,8.24,316.0,9.71,12.17,47.59359,-54.27349
2022-01-11 02:04:01+00:00,319.0,7.57,321.0,8.72,12.17,47.59359,-54.27349
2022-01-11 02:14:00+00:00,320.0,7.38,311.0,8.97,12.17,47.59359,-54.27349
2022-01-11 02:24:00+00:00,307.0,7.31,301.0,9.39,12.17,47.59359,-54.27349
2022-01-11 02:34:00+00:00,328.0,7.55,309.0,9.35,12.17,47.59359,-54.27349
2022-01-11 02:44:00+00:00,314.0,6.64,311.0,8.04,12.17,47.59359,-54.27349
2022-01-11 02:54:00+00:00,322.0,6.76,326.0,8.01,12.17,47.59359,-54.27349
2022-01-11 03:04:00+00:00,307.0,8.18,306.0,10.37,12.17,47.59359,-54.27349
2022-01-11 03:14:01+00:00,327.0,6.0,322.0,7.48,12.09,47.59359,-54.27349
2022-01-11 03:24:01+00:00,315.0,5.84,300.0,8.65,12.09,47.59359,-54.27349
2022-01-11 03:34:01+00:00,295.0,12.25,298.0,14.99,12.09,47.59359,-54.27349
2022-01-11 03:44:01+00:00,299.0,10.01,290.0,13.7,12.09,47.59359,-54.27349
2022-01-11 03:54:01+00:00,302.0,9.22,290.0,13.99,12.09,47.59359,-54.27349
2022-01-11 04:04:01+00:00,317.0,3.97,284.0,6.41,12.09,47.59359,-54.27349
2022-01-11 04:14:01+00:00,328.0,5.22,312.0,7.42,12.17,47.59359,-54.27349
2022-01-11 04:24:01+00:00,327.0,5.31,319.0,6.85,12.17,47.59359,-54.27349
2022-01-11 04:34:01+00:00,307.0,4.38,314.0,6.44,12.17,47.59359,-54.27349
2022-01-11 04:44:01+00:00,304.0,5.34,294.0,7.37,12.17,47.59359,-54.27349
2022-01-11 04:54:01+00:00,318.0,5.24,312.0,6.55,12.17,47.59359,-54.27349
2022-01-11 05:04:01+00:00,303.0,4.08,302.0,5.93,12.17,47.59359,-54.27349
2022-01-11 05:14:00+00:00,317.0,6.52,313.0,10.34,12.09,47.59359,-54.27349
2022-01-11 05:24:00+00:00,290.0,3.89,293.0,5.06,12.09,47.59359,-54.27349
2022-01-11 05:34:00+00:00,292.0,7.38,282.0,12.35,12.09,47.59359,-54.27349
2022-01-11 05:44:00+00:00,288.0,6.8,275.0,12.09,12.09,47.59359,-54.27349
2022-01-11 05:54:00+00:00,308.0,6.35,295.0,10.08,12.09,47.59359,-54.27349
2022-01-11 06:04:00+00:00,307.0,7.11,300.0,10.42,12.09,47.59359,-54.27349
2022-01-11 06:14:01+00:00,308.0,7.52,305.0,9.33,12.09,47.59359,-54.27349
2022-01-11 06:24:01+00:00,311.0,5.7,303.0,7.63,12.09,47.59359,-54.27349
2022-01-11 06:34:01+00:00,310.0,5.08,299.0,7.37,12.09,47.59359,-54.27349
2022-01-11 06:44:01+00:00,301.0,5.02,296.0,7.13,12.09,47.59359,-54.27349
2022-01-11 06:54:01+00:00,306.0,6.92,288.0,13.17,12.09,47.59359,-54.27349
2022-01-11 07:04:01+00:00,300.0,8.56,297.0,11.62,12.09,47.59359,-54.27349
2022-01-11 07:14:00+00:00,313.0,6.63,317.0,9.86,12.09,47.59359,-54.27349
2022-01-11 07:24:00+00:00,312.0,8.84,309.0,10.0,12.09,47.59359,-54.27349
2022-01-11 07:34:00+00:00,312.0,6.01,308.0,8.33,12.09,47.59359,-54.27349
2022-01-11 07:44:00+00:00,298.0,7.06,300.0,8.47,12.09,47.59359,-54.27349
2022-01-11 07:54:00+00:00,306.0,6.22,316.0,8.07,12.09,47.59359,-54.27349
2022-01-11 08:04:00+00:00,313.0,8.51,319.0,10.32,12.09,47.59359,-54.27349
2022-01-11 08:14:01+00:00,304.0,9.63,303.0,12.27,12.09,47.59359,-54.27349
2022-01-11 08:24:01+00:00,312.0,8.32,321.0,9.91,12.09,47.59359,-54.27349
2022-01-11 08:34:01+00:00,304.0,6.99,306.0,8.49,12.09,47.59359,-54.27349
2022-01-11 08:44:01+00:00,304.0,5.84,298.0,7.9,12.09,47.59359,-54.27349
2022-01-11 08:54:01+00:00,308.0,6.56,308.0,7.84,12.09,47.59359,-54.27349
2022-01-11 09:04:01+00:00,312.0,8.19,313.0,9.74,12.09,47.59359,-54.27349
2022-01-11 09:14:01+00:00,303.0,5.59,306.0,6.87,12.09,47.59359,-54.27349
2022-01-11 09:24:01+00:00,296.0,7.8,302.0,9.54,12.09,47.59359,-54.27349
2022-01-11 09:34:01+00:00,295.0,7.71,290.0,8.5,12.09,47.59359,-54.27349
2022-01-11 09:44:01+00:00,294.0,6.13,293.0,6.96,12.09,47.59359,-54.27349
2022-01-11 09:54:01+00:00,304.0,6.3,305.0,7.57,12.09,47.59359,-54.27349
2022-01-11 10:04:01+00:00,311.0,6.18,306.0,8.08,12.09,47.59359,-54.27349
2022-01-11 10:14:01+00:00,321.0,6.65,317.0,8.79,12.09,47.59359,-54.27349
2022-01-11 10:24:01+00:00,318.0,7.45,308.0,11.02,12.09,47.59359,-54.27349
2022-01-11 10:34:01+00:00,312.0,5.4,297.0,7.79,12.09,47.59359,-54.27349
2022-01-11 10:44:01+00:00,314.0,6.99,307.0,8.49,12.09,47.59359,-54.27349
2022-01-11 10:54:01+00:00,320.0,6.7,310.0,9.56,12.09,47.59359,-54.27349
2022-01-11 11:04:01+00:00,316.0,8.15,309.0,10.71,12.09,47.59359,-54.27349
2022-01-11 11:14:01+00:00,307.0,9.2,304.0,11.45,12.09,47.59359,-54.27349
2022-01-11 11:24:01+00:00,308.0,7.9,298.0,10.6,12.09,47.59359,-54.27349
2022-01-11 11:34:01+00:00,310.0,8.38,298.0,10.58,12.09,47.59359,-54.27349
2022-01-11 11:44:01+00:00,305.0,8.71,301.0,11.23,12.09,47.59359,-54.27349
2022-01-11 11:54:01+00:00,307.0,9.16,308.0,11.86,12.09,47.59359,-54.27349
2022-01-11 12:04:01+00:00,300.0,9.96,300.0,11.11,12.09,47.59359,-54.27349
2022-01-11 12:14:01+00:00,317.0,5.27,326.0,6.54,12.17,47.59359,-54.27349
2022-01-11 12:24:01+00:00,302.0,5.31,296.0,8.97,12.17,47.59359,-54.27349
2022-01-11 12:34:01+00:00,315.0,4.44,317.0,5.61,12.17,47.59359,-54.27349
2022-01-11 12:44:01+00:00,323.0,4.3,319.0,5.27,12.17,47.59359,-54.27349
2022-01-11 12:54:01+00:00,292.0,5.81,293.0,9.24,12.17,47.59359,-54.27349
2022-01-11 13:04:01+00:00,296.0,8.01,287.0,10.4,12.17,47.59359,-54.27349
2022-01-11 13:14:01+00:00,287.0,5.9,287.0,9.86,12.65,47.59359,-54.27349
2022-01-11 13:24:01+00:00,306.0,6.43,297.0,9.46,12.65,47.59359,-54.27349
2022-01-11 13:34:01+00:00,287.0,5.43,274.0,9.45,12.65,47.59359,-54.27349
2022-01-11 13:44:01+00:00,311.0,4.89,318.0,6.17,12.65,47.59359,-54.27349
2022-01-11 13:54:01+00:00,286.0,8.27,285.0,10.11,12.65,47.59359,-54.27349
2022-01-11 14:04:01+00:00,307.0,5.21,293.0,8.54,12.65,47.59359,-54.27349
2022-01-11 14:14:01+00:00,293.0,5.47,291.0,8.32,13.6,47.59359,-54.27349
2022-01-11 14:24:01+00:00,310.0,5.19,299.0,7.7,13.6,47.59359,-54.27349
2022-01-11 14:34:01+00:00,300.0,5.93,296.0,9.21,13.6,47.59359,-54.27349
2022-01-11 14:44:01+00:00,297.0,5.19,292.0,8.79,13.6,47.59359,-54.27349
2022-01-11 14:54:01+00:00,295.0,6.01,288.0,8.53,13.6,47.59359,-54.27349
2022-01-11 15:04:01+00:00,317.0,7.29,304.0,9.53,13.6,47.59359,-54.27349
2022-01-11 15:14:01+00:00,310.0,7.56,299.0,10.41,13.6,47.59359,-54.27349
2022-01-11 15:24:01+00:00,313.0,5.22,309.0,6.58,13.6,47.59359,-54.27349
2022-01-11 15:34:01+00:00,315.0,6.42,304.0,9.66,13.6,47.59359,-54.27349
2022-01-11 15:44:01+00:00,312.0,5.28,319.0,6.53,13.6,47.59359,-54.27349
2022-01-11 15:54:01+00:00,303.0,5.6,305.0,6.76,13.6,47.59359,-54.27349
2022-01-11 16:04:01+00:00,301.0,5.34,302.0,6.52,13.6,47.59359,-54.27349
2022-01-11 16:14:01+00:00,284.0,7.17,287.0,8.94,13.44,47.59359,-54.27349
2022-01-11 16:24:01+00:00,314.0,4.8,313.0,6.1,13.44,47.59359,-54.27349
2022-01-11 16:34:01+00:00,322.0,5.83,327.0,6.48,13.44,47.59359,-54.27349
2022-01-11 16:44:01+00:00,286.0,6.72,288.0,9.18,13.44,47.59359,-54.27349
2022-01-11 16:54:01+00:00,306.0,6.37,307.0,7.53,13.44,47.59359,-54.27349
2022-01-11 17:04:01+00:00,291.0,3.37,286.0,6.17,13.44,47.59359,-54.27349
2022-01-11 17:14:00+00:00,286.0,4.53,289.0,6.53,13.44,47.59359,-54.27349
2022-01-11 17:24:00+00:00,264.0,3.99,266.0,4.72,13.44,47.59359,-54.27349
2022-01-11 17:34:00+00:00,293.0,4.87,287.0,6.08,13.44,47.59359,-54.27349
2022-01-11 17:44:00+00:00,295.0,3.95,293.0,5.67,13.44,47.59359,-54.27349
2022-01-11 17:54:00+00:00,301.0,3.92,292.0,7.06,13.44,47.59359,-54.27349
2022-01-11 18:04:00+00:00,296.0,4.16,288.0,5.87,13.44,47.59359,-54.27349
2022-01-11 18:14:00+00:00,262.0,3.23,280.0,4.77,13.37,47.59359,-54.27349
2022-01-11 18:24:00+00:00,297.0,5.15,304.0,6.72,13.37,47.59359,-54.27349
2022-01-11 18:34:00+00:00,264.0,3.73,266.0,6.63,13.37,47.59359,-54.27349
2022-01-11 18:44:00+00:00,284.0,4.72,285.0,5.7,13.37,47.59359,-54.27349
2022-01-11 18:54:00+00:00,274.0,5.92,274.0,6.52,13.37,47.59359,-54.27349
2022-01-11 19:04:00+00:00,292.0,6.1,294.0,7.03,13.37,47.59359,-54.27349
2022-01-11 19:14:00+00:00,292.0,4.33,280.0,6.31,13.29,47.59359,-54.27349
2022-01-11 19:24:00+00:00,291.0,4.97,280.0,6.97,13.29,47.59359,-54.27349
2022-01-11 19:34:00+00:00,294.0,4.85,285.0,6.76,13.29,47.59359,-54.27349
2022-01-11 19:44:00+00:00,279.0,4.52,273.0,5.35,13.29,47.59359,-54.27349
2022-01-11 19:54:00+00:00,301.0,4.92,303.0,5.95,13.29,47.59359,-54.27349
2022-01-11 20:04:00+00:00,285.0,4.47,285.0,6.92,13.29,47.59359,-54.27349
2022-01-11 20:14:00+00:00,285.0,5.01,279.0,6.69,12.65,47.59359,-54.27349
2022-01-11 20:24:00+00:00,296.0,4.54,292.0,5.79,12.65,47.59359,-54.27349
2022-01-11 20:34:00+00:00,291.0,4.56,282.0,6.93,12.65,47.59359,-54.27349
2022-01-11 20:44:00+00:00,315.0,4.97,309.0,6.75,12.65,47.59359,-54.27349
2022-01-11 20:54:00+00:00,306.0,5.56,298.0,7.11,12.65,47.59359,-54.27349
2022-01-11 21:04:00+00:00,316.0,5.57,304.0,7.42,12.65,47.59359,-54.27349
2022-01-11 21:14:00+00:00,334.0,3.72,299.0,6.22,12.57,47.59359,-54.27349
2022-01-11 21:24:00+00:00,350.0,4.26,332.0,5.81,12.57,47.59359,-54.27349
2022-01-11 21:34:00+00:00,330.0,5.69,318.0,7.57,12.57,47.59359,-54.27349
2022-01-11 21:44:00+00:00,347.0,4.3,312.0,6.46,12.57,47.59359,-54.27349
2022-01-11 21:54:00+00:00,346.0,4.97,330.0,6.01,12.57,47.59359,-54.27349
2022-01-11 22:04:00+00:00,330.0,5.83,311.0,7.82,12.57,47.59359,-54.27349
2022-01-11 22:14:00+00:00,319.0,6.87,312.0,8.31,12.49,47.59359,-54.27349
2022-01-11 22:24:00+00:00,331.0,6.67,332.0,7.9,12.49,47.59359,-54.27349
2022-01-11 22:34:00+00:00,337.0,6.65,339.0,7.92,12.49,47.59359,-54.27349
2022-01-11 22:44:00+00:00,313.0,7.01,310.0,8.83,12.49,47.59359,-54.27349
2022-01-11 22:54:00+00:00,322.0,9.41,312.0,11.24,12.49,47.59359,-54.27349
2022-01-11 23:04:00+00:00,320.0,8.98,309.0,11.74,12.49,47.59359,-54.27349
2022-01-11 23:14:00+00:00,319.0,7.54,304.0,9.78,12.49,47.59359,-54.27349
2022-01-11 23:24:00+00:00,323.0,7.91,311.0,10.57,12.49,47.59359,-54.27349
2022-01-11 23:34:00+00:00,316.0,10.55,313.0,12.71,12.49,47.59359,-54.27349
2022-01-11 23:44:00+00:00,311.0,9.59,317.0,10.49,12.49,47.59359,-54.27349
2022-01-11 23:54:00+00:00,311.0,10.24,309.0,12.35,12.49,47.59359,-54.27349
